Gold Coast Seaway Observation History
Time Wind Speed Temp Pressure Rel. Hum Rain
08/08:00am S 17-21 kts 23.0°c 1018.6 hPa 66% 0.6mm
08/07:30am S 18-21 kts 22.6°c 1018.2 hPa 71% 0.6mm
08/07:00am S 16-20 kts 21.4°c 1017.9 hPa 73% 0.6mm
08/06:30am S 16-21 kts 20.9°c 1017.6 hPa 73% 0.6mm
08/06:00am S 11-17 kts 20.4°c 1017.3 hPa 73% 0.6mm
08/05:30am S 10-14 kts 20.2°c 1017.1 hPa 73% 0.6mm
08/05:00am S 14-19 kts 20.5°c 1016.7 hPa 73% 0.6mm
08/04:30am S 14-20 kts 20.7°c 1016.3 hPa 73% 0.6mm
08/04:00am S 13-17 kts 20.7°c 1016.4 hPa 72% 0.6mm
08/03:30am S 15-21 kts 20.5°c 1016.1 hPa 74% 0.4mm
08/03:00am S 13-18 kts 20.4°c 1016.1 hPa 74% 0.4mm
08/02:30am S 16-20 kts 20.7°c 1016.3 hPa 74% 0.4mm
08/02:00am S 12-17 kts 20.5°c 1016.6 hPa 75% 0.4mm
08/01:30am S 15-20 kts 20.4°c 1016.9 hPa 76% 0.4mm
08/01:00am S 14-19 kts 20.4°c 1017.1 hPa 76% 0.4mm
08/12:30am S 13-18 kts 20.1°c 1017.1 hPa 78% 0.4mm
08/12:00am S 14-19 kts 20.0°c 1017.2 hPa 80% 0.4mm
Time Wind Speed Temp Pressure Rel. Hum Rain
07/11:30pm S 13-21 kts 20.0°c 1017.4 hPa 81% 0.4mm
07/11:00pm S 7-11 kts 19.9°c 1017.8 hPa 83% 0.4mm
07/10:30pm S 7-10 kts 19.7°c 1017.9 hPa 85% 0.4mm
07/10:00pm SSW 8-13 kts 19.7°c 1018.2 hPa 85% 0.4mm
07/09:30pm S 11-16 kts 19.7°c 1018.2 hPa 85% 0.2mm
07/09:00pm SSW 10-15 kts 19.5°c 1018.0 hPa 85% 0.2mm
07/08:30pm S 11-15 kts 19.7°c 1018.1 hPa 85% 0.2mm
07/08:03pm S 17-27 kts 19.7°c 1017.9 hPa 83% 0.2mm
07/08:00pm S 18-27 kts 20.0°c 1017.9 hPa 83% 0.2mm
07/07:54pm S 13-26 kts 20.5°c 1017.9 hPa 82% 0.0mm
07/07:30pm S 10-16 kts 20.3°c 1017.5 hPa 81% 0.0mm
07/07:00pm S 15-24 kts 21.3°c 1017.2 hPa 75% 0.0mm
07/06:30pm S 17-22 kts 21.7°c 1016.8 hPa 69% 0.0mm
07/06:00pm S 15-21 kts 22.0°c 1016.4 hPa 67% 0.0mm
07/05:30pm S 17-22 kts 22.5°c 1015.9 hPa 66% 0.0mm
07/05:00pm SSE 17-20 kts 23.0°c 1015.7 hPa 64% 0.0mm
07/04:30pm SSE 18-24 kts 23.8°c 1015.6 hPa 64% 0.0mm
07/04:00pm SSE 22-26 kts 24.5°c 1015.3 hPa 60% 0.0mm
07/03:30pm SSE 19-22 kts 25.5°c 1015.1 hPa 53% 0.0mm
07/03:00pm SSE 17-22 kts 26.8°c 1014.9 hPa 46% 0.0mm
07/02:30pm SSE 15-17 kts 27.9°c 1014.9 hPa 42% 0.0mm
07/02:00pm SSE 16-18 kts 27.7°c 1015.2 hPa 45% 0.0mm
07/01:30pm SSE 16-19 kts 28.0°c 1015.3 hPa 44% 0.0mm
07/01:00pm SSE 15-18 kts 27.5°c 1015.8 hPa 45% 0.0mm
07/12:30pm SSE 15-18 kts 27.6°c 1016.2 hPa 49% 0.0mm
07/12:00pm SSE 15-18 kts 26.9°c 1016.8 hPa 46% 0.0mm
07/11:30am SSE 15-18 kts 26.1°c 1017.4 hPa 50% 0.0mm
07/11:00am SSE 16-19 kts 25.8°c 1017.8 hPa 53% 0.0mm
07/10:30am SSE 17-20 kts 26.6°c 1018.0 hPa 51% 0.0mm
07/10:00am SSE 16-19 kts 25.9°c 1018.1 hPa 53% 0.0mm
07/09:30am S 16-19 kts 25.6°c 1018.1 hPa 52% 0.0mm
07/09:00am S 16-19 kts 25.0°c 1018.0 hPa 53% 0.0mm
07/08:30am S 14-19 kts 24.5°c 1017.8 hPa 55% 0.0mm
07/08:00am S 12-16 kts 23.5°c 1017.5 hPa 58% 0.0mm
07/07:30am S 11-15 kts 22.2°c 1017.3 hPa 60% 0.0mm
07/07:00am SSW 8-11 kts 20.8°c 1017.0 hPa 67% 0.0mm
07/06:30am S 8-14 kts 19.5°c 1016.9 hPa 72% 0.0mm
07/06:00am SSW 6-9 kts 19.5°c 1016.7 hPa 72% 0.0mm
07/05:30am SSW 8-11 kts 20.1°c 1016.5 hPa 72% 0.0mm
07/05:00am S 8-13 kts 19.7°c 1016.2 hPa 72% 0.0mm
07/04:30am SSW 8-10 kts 20.0°c 1015.8 hPa 72% 0.0mm
07/04:00am SSW 7-12 kts 20.1°c 1015.7 hPa 72% 0.0mm
07/03:30am S 9-11 kts 20.0°c 1015.6 hPa 71% 0.0mm
07/03:00am SSW 9-12 kts 20.2°c 1015.6 hPa 71% 0.0mm
07/02:30am S 9-14 kts 20.4°c 1015.7 hPa 69% 0.0mm
07/02:00am SSW 9-13 kts 20.7°c 1016.0 hPa 69% 0.0mm
07/01:30am S 10-16 kts 20.6°c 1016.2 hPa 71% 0.0mm
07/01:00am SSW 8-12 kts 20.6°c 1016.4 hPa 72% 0.0mm
07/12:30am SSW 8-12 kts 20.5°c 1016.5 hPa 72% 0.0mm
07/12:00am SSW 8-10 kts 20.6°c 1016.7 hPa 74% 0.0mm
Time Wind Speed Temp Pressure Rel. Hum Rain
06/11:30pm SSW 8-10 kts 20.6°c 1016.8 hPa 73% 0.0mm
06/11:00pm SSW 8-10 kts 20.7°c 1017.0 hPa 73% 0.0mm
06/10:30pm SSW 8-10 kts 20.9°c 1017.1 hPa 72% 0.0mm
06/10:00pm SSW 8-11 kts 21.1°c 1017.1 hPa 72% 0.0mm
06/09:30pm SSW 8-10 kts 21.1°c 1017.0 hPa 71% 0.0mm
06/09:00pm SSW 8-10 kts 21.3°c 1017.1 hPa 71% 0.0mm
06/08:30pm SSW 8-10 kts 21.3°c 1016.8 hPa 70% 0.0mm
06/08:00pm S 13-17 kts 21.8°c 1016.5 hPa 70% 0.0mm
06/07:30pm S 11-15 kts 22.0°c 1016.2 hPa 70% 0.0mm
06/07:00pm S 14-17 kts 23.0°c 1015.9 hPa 69% 0.0mm
06/06:30pm SE 15-18 kts 23.4°c 1015.5 hPa 64% 0.0mm
06/06:00pm SSE 15-18 kts 23.7°c 1015.3 hPa 68% 0.0mm
06/05:30pm SE 15-18 kts 23.7°c 1015.2 hPa 67% 0.0mm
06/05:00pm SE 15-18 kts 23.6°c 1014.9 hPa 64% 0.0mm
06/04:30pm SE 14-17 kts 24.6°c 1014.7 hPa 65% 0.0mm
06/04:00pm SE 15-17 kts 24.9°c 1014.6 hPa 61% 0.0mm
06/03:30pm SE 14-17 kts 25.3°c 1014.7 hPa 61% 0.0mm
06/03:00pm SE 15-17 kts 25.8°c 1014.5 hPa 59% 0.0mm
06/02:30pm SE 13-15 kts 25.6°c 1014.6 hPa 58% 0.0mm
06/02:00pm SE 11-15 kts 25.8°c 1014.7 hPa 56% 0.0mm
06/01:30pm ESE 11-12 kts 26.1°c 1014.8 hPa 60% 0.0mm
06/01:00pm ESE 10-11 kts 26.1°c 1015.2 hPa 57% 0.0mm
06/12:30pm SE 8-13 kts 26.6°c 1015.6 hPa 51% 0.0mm
06/12:00pm SE 7-9 kts 25.9°c 1016.0 hPa 53% 0.0mm
06/11:30am SE 8-9 kts 26.4°c 1016.4 hPa 57% 0.0mm
06/11:00am SE 9-12 kts 25.9°c 1016.6 hPa 59% 0.0mm
06/10:30am SE 9-10 kts 26.1°c 1016.8 hPa 57% 0.0mm
06/10:00am SE 7-8 kts 25.6°c 1016.9 hPa 58% 0.0mm
06/09:30am ESE 7-8 kts 25.2°c 1017.0 hPa 58% 0.0mm
06/09:00am CALM 0 kts 24.4°c 1017.1 hPa 54% 0.0mm
06/08:30am WSW 4-6 kts 23.4°c 1017.1 hPa 62% 0.0mm
06/08:00am WSW 5-7 kts 22.0°c 1017.2 hPa 68% 0.0mm
06/07:30am SW 7-8 kts 20.8°c 1016.9 hPa 76% 0.0mm
06/07:00am WSW 5-6 kts 19.4°c 1016.5 hPa 79% 0.0mm
06/06:30am SW 6-8 kts 18.6°c 1016.1 hPa 83% 0.0mm
06/06:00am SW 7-8 kts 18.1°c 1015.8 hPa 84% 0.0mm
06/05:30am WSW 6-7 kts 18.3°c 1015.7 hPa 84% 0.0mm
06/05:00am WSW 6-8 kts 18.3°c 1015.4 hPa 84% 0.0mm
06/04:30am SW 7-8 kts 18.3°c 1015.2 hPa 83% 0.0mm
06/04:00am SW 7-8 kts 18.4°c 1015.0 hPa 82% 0.0mm
06/03:30am WSW 7-8 kts 18.4°c 1015.0 hPa 82% 0.0mm
06/03:00am WSW 6-7 kts 18.6°c 1015.0 hPa 81% 0.0mm
06/02:30am SW 6-7 kts 18.7°c 1015.0 hPa 81% 0.0mm
06/02:00am SW 6-8 kts 18.8°c 1015.0 hPa 80% 0.0mm
06/01:30am SW 7-8 kts 18.8°c 1015.2 hPa 80% 0.0mm
06/01:00am SW 6-8 kts 18.9°c 1015.3 hPa 80% 0.0mm
06/12:30am SW 6-7 kts 19.1°c 1015.6 hPa 79% 0.0mm
06/12:00am SW 6-8 kts 19.2°c 1015.7 hPa 78% 0.0mm